DW2213 Weather Reports


time (UTC)temp
C
wind
direction
speed
KPH
gust
KPH
rain 1hr
cm
rain 24hr
cm
rain mn
cm
humidity
%
barometer
mb
20220812002750 26 241 3.2 4.8 0.00 0.00 0.00 80 1013.1
20220812002250 26 241 3.2 8.0 0.00 0.00 0.00 79 1013.1
20220812001250 26 240 3.2 8.0 0.00 0.00 0.00 78 1013.2
20220812000750 26 235 1.6 4.8 0.00 0.00 0.00 78 1013.2
20220811235750 26 234 1.6 8.0 0.00 0.00 0.00 77 1013.3
20220811231750 27 211 1.6 4.8 0.00 0.00 0.00 73 1013.5
20220811231250 27 211 3.2 4.8 0.00 0.00 0.00 73 1013.5
20220811230250 27 211 1.6 4.8 0.00 0.00 0.00 72 1013.5
20220811225750 27 211 1.6 4.8 0.00 0.00 0.00 71 1013.6
20220811224750 28 211 3.2 4.8 0.00 0.00 0.00 70 1013.5
20220811223750 28 211 1.6 4.8 0.00 0.00 0.00 69 1013.4
20220811222750 28 211 1.6 3.2 0.00 0.00 0.00 68 1013.4
20220811222250 28 211 1.6 4.8 0.00 0.00 0.00 68 1013.4
20220811221750 28 180 4.8 8.0 0.00 0.00 0.00 67 1013.3
20220811221250 28 161 0.0 3.2 0.00 0.00 0.00 66 1013.3
20220811220830 28 161 0.0 4.8 0.00 0.00 0.00 65 1013.4
20220811215250 28 161 0.0 0.0 0.00 0.00 0.00 65 1013.3
20220811213750 28 161 1.6 8.0 0.00 0.00 0.00 64 1013.2
20220811213249 28 160 1.6 8.0 0.00 0.00 0.00 64 1013.2
20220811212250 28 119 1.6 4.8 0.00 0.00 0.00 65 1013.1
20220811210750 29 113 3.2 9.7 0.00 0.00 0.00 66 1012.9
20220811204749 29 123 8.0 11.3 0.00 0.00 0.00 66 1012.7
20220811204249 29 143 8.0 9.7 0.00 0.00 0.00 66 1012.6
20220811203749 29 136 6.4 9.7 0.00 0.00 0.00 66 1012.6
20220811202749 30 122 8.0 16.1 0.00 0.00 0.00 65 1012.5
20220811202250 30 130 8.0 12.9 0.00 0.00 0.00 64 1012.4
20220811201749 30 136 8.0 12.9 0.00 0.00 0.00 64 1012.4
20220811200250 30 140 4.8 9.7 0.00 0.00 0.00 63 1012.3
20220811195750 30 140 8.0 11.3 0.00 0.00 0.00 63 1012.2
20220811194749 30 148 4.8 9.7 0.00 0.00 0.00 63 1012.1
20220811192750 30 150 6.4 11.3 0.00 0.00 0.00 63 1011.8
20220811190249 30 147 9.7 14.5 0.00 0.00 0.00 63 1011.5
20220811184750 31 122 9.7 12.9 0.00 0.00 0.00 62 1011.3
20220811183249 31 138 11.3 19.3 0.00 0.00 0.00 62 1011.3
20220811182249 31 122 11.3 14.5 0.00 0.00 0.00 60 1011.3
20220811181249 31 136 9.7 14.5 0.00 0.00 0.00 59 1011.3
20220811180750 32 124 9.7 12.9 0.00 0.00 0.00 58 1011.2
20220811180249 32 118 11.3 14.5 0.00 0.00 0.00 58 1011.2
20220811175749 32 128 9.7 19.3 0.00 0.00 0.00 57 1011.3
20220811174249 32 134 9.7 19.3 0.00 0.00 0.00 57 1011.2
20220811172749 32 136 14.5 22.5 0.00 0.00 0.00 59 1011.2
20220811172249 32 132 11.3 19.3 0.00 0.00 0.00 58 1011.3
20220811170249 32 128 9.7 19.3 0.00 0.00 0.00 58 1011.3
20220811165249 32 139 11.3 24.1 0.00 0.00 0.00 59 1011.4
20220811164749 32 127 12.9 25.7 0.00 0.00 0.00 58 1011.5
20220811164249 32 132 16.1 25.7 0.00 0.00 0.00 58 1011.5
20220811162748 32 121 12.9 19.3 0.00 0.00 0.00 61 1011.6
20220811161749 32 111 14.5 25.7 0.00 0.00 0.00 61 1011.7
20220811161249 32 123 16.1 25.7 0.00 0.00 0.00 60 1011.8
20220811160249 32 115 14.5 27.4 0.00 0.00 0.00 61 1011.9
20220811154249 32 122 14.5 22.5 0.00 0.00 0.00 63 1012.1
20220811151249 32 117 14.5 25.7 0.00 0.00 0.00 60 1012.3
20220811150748 33 110 12.9 24.1 0.00 0.00 0.00 62 1012.3
20220811150248 32 102 11.3 19.3 0.00 0.00 0.00 61 1012.3
20220811145249 32 119 11.3 22.5 0.00 0.00 0.00 62 1012.5
20220811143749 32 107 12.9 19.3 0.00 0.00 0.00 61 1012.6
20220811142248 33 107 11.3 20.9 0.00 0.00 0.00 61 1012.7
20220811140249 33 99 9.7 19.3 0.00 0.00 0.00 60 1012.8
20220811134249 33 105 8.0 19.3 0.00 0.00 0.00 59 1012.9
20220811133248 32 130 8.0 20.9 0.00 0.00 0.00 61 1012.9
20220811131749 32 114 11.3 19.3 0.00 0.00 0.00 61 1013.0
20220811131249 32 100 12.9 20.9 0.00 0.00 0.00 61 1013.1
20220811130748 32 72 8.0 19.3 0.00 0.00 0.00 61 1013.1
20220811130248 32 46 9.7 20.9 0.00 0.00 0.00 61 1013.1
20220811125748 33 120 9.7 19.3 0.00 0.00 0.00 62 1013.2
20220811125248 32 117 12.9 20.9 0.00 0.00 0.00 62 1013.2
20220811124248 32 102 11.3 19.3 0.00 0.00 0.00 61 1013.2
20220811123249 32 89 11.3 20.9 0.00 0.00 0.00 61 1013.3
20220811122748 33 110 9.7 20.9 0.00 0.00 0.00 61 1013.3
20220811122248 32 120 9.7 19.3 0.00 0.00 0.00 62 1013.3
20220811120248 32 111 8.0 19.3 0.00 0.00 0.00 62 1013.4
20220811114748 32 110 8.0 20.9 0.00 0.00 0.00 61 1013.5
20220811112249 32 113 9.7 19.3 0.00 0.00 0.00 63 1013.5
20220811111249 32 109 8.0 14.5 0.00 0.00 0.00 62 1013.5
20220811110748 32 90 11.3 19.3 0.00 0.00 0.00 62 1013.5
20220811110248 32 121 9.7 19.3 0.00 0.00 0.00 63 1013.5
20220811104248 32 126 11.3 20.9 0.00 0.00 0.00 64 1013.7
20220811103249 32 94 9.7 19.3 0.00 0.00 0.00 65 1013.6
20220811102748 32 107 8.0 12.9 0.00 0.00 0.00 65 1013.5
20220811100249 31 98 4.8 12.9 0.00 0.00 0.00 63 1013.6
20220811095249 31 45 4.8 9.7 0.00 0.00 0.00 63 1013.6
20220811094249 30 308 3.2 8.0 0.00 0.00 0.00 67 1013.7
20220811092749 30 11 4.8 9.7 0.00 0.00 0.00 67 1013.6
20220811092249 30 169 1.6 8.0 0.00 0.00 0.00 68 1013.5
20220811091750 30 169 3.2 4.8 0.00 0.00 0.00 68 1013.6
20220811091250 30 170 3.2 8.0 0.00 0.00 0.00 68 1013.6
20220811090250 30 165 3.2 8.0 0.00 0.00 0.00 71 1013.6
20220811084750 28 160 4.8 8.0 0.00 0.00 0.00 72 1013.6
20220811084250 28 21 0.0 4.8 0.00 0.00 0.00 72 1013.7
20220811081751 28 286 1.6 3.2 0.00 0.00 0.00 74 1013.7
20220811081250 28 291 1.6 4.8 0.00 0.00 0.00 74 1013.7
20220811080751 28 290 3.2 9.7 0.00 0.00 0.00 74 1013.7
20220811080251 28 270 4.8 9.7 0.00 0.00 0.00 75 1013.7
20220811075751 27 283 1.6 4.8 0.00 0.00 0.00 75 1013.7
20220811075251 27 299 4.8 11.3 0.00 0.00 0.00 75 1013.7
20220811073752 27 223 3.2 9.7 0.00 0.00 0.00 77 1013.7
20220811073252 27 224 4.8 9.7 0.00 0.00 0.00 77 1013.7
20220811072252 27 280 3.2 8.0 0.00 0.00 0.00 78 1013.6
20220811071752 26 242 3.2 8.0 0.00 0.00 0.00 78 1013.6
20220811070752 26 237 3.2 4.8 0.00 0.00 0.00 79 1013.5
20220811070252 26 237 3.2 4.8 0.00 0.00 0.00 80 1013.6
20220811065252 26 229 1.6 11.3 0.00 0.00 0.00 81 1013.5
20220811064252 25 219 3.2 4.8 0.00 0.00 0.00 83 1013.5
20220811063253 25 219 1.6 4.8 0.00 0.00 0.00 84 1013.3
20220811062753 25 219 3.2 4.8 0.00 0.00 0.00 84 1013.3
20220811062253 25 219 1.6 4.8 0.00 0.00 0.00 84 1013.3
20220811061753 25 219 3.2 8.0 0.00 0.00 0.00 84 1013.3
20220811055753 25 219 0.0 1.6 0.00 0.00 0.00 84 1013.2
20220811054753 25 219 1.6 4.8 0.00 0.00 0.00 84 1013.2
20220811053754 25 219 0.0 4.8 0.00 0.00 0.00 84 1013.2
20220811052254 25 219 0.0 3.2 0.00 0.00 0.00 83 1013.1
20220811051755 25 219 0.0 3.2 0.00 0.00 0.00 83 1013.2
20220811051255 25 219 0.0 3.2 0.00 0.00 0.00 83 1013.1
20220811050755 25 219 1.6 3.2 0.00 0.00 0.00 83 1013.1
20220811050255 25 219 0.0 1.6 0.00 0.00 0.00 83 1013.1
20220811045755 25 219 0.0 1.6 0.00 0.00 0.00 83 1013.1
20220811045254 25 219 0.0 0.0 0.00 0.00 0.00 83 1013.1
20220811044755 25 219 0.0 0.0 0.00 0.00 0.00 83 1013.1
20220811043755 25 219 0.0 0.0 0.00 0.00 0.00 83 1013.0
20220811043255 25 219 0.0 0.0 0.00 0.00 0.00 83 1013.0
20220811042756 25 219 0.0 1.6 0.00 0.00 0.00 83 1013.1
20220811035756 25 219 0.0 1.6 0.00 0.00 0.00 83 1013.0
20220811035257 25 219 0.0 1.6 0.00 0.00 0.00 83 1013.0
20220811034757 25 219 0.0 3.2 0.00 0.00 0.00 83 1013.0
20220811032756 25 219 1.6 3.2 0.00 0.00 0.00 82 1013.0
20220811031257 25 219 0.0 1.6 0.00 0.00 0.00 82 1013.0
20220811025258 25 219 1.6 4.8 0.00 0.00 0.00 82 1013.1
20220811023758 25 219 1.6 4.8 0.00 0.00 0.00 81 1013.2
20220811023258 25 218 1.6 4.8 0.00 0.00 0.00 81 1013.2
20220811021758 25 188 1.6 4.8 0.00 0.00 0.00 81 1013.2
20220811020758 26 188 0.0 3.2 0.00 0.00 0.00 80 1013.2
20220811020258 26 188 3.2 4.8 0.00 0.00 0.00 80 1013.2
20220811015259 26 187 1.6 4.8 0.00 0.00 0.00 80 1013.1
20220811014759 26 185 1.6 4.8 0.00 0.00 0.00 80 1013.1
20220811014259 26 184 1.6 4.8 0.00 0.00 0.00 80 1013.1
20220811013759 26 184 1.6 3.2 0.00 0.00 0.00 80 1013.1
20220811012759 26 184 0.0 3.2 0.00 0.00 0.00 79 1013.1
20220811011800 26 184 0.0 3.2 0.00 0.00 0.00 79 1013.1
20220811011259 26 184 0.0 4.8 0.00 0.00 0.00 79 1013.1
20220811010759 27 184 0.0 1.6 0.00 0.00 0.00 79 1013.2
20220811010300 27 184 0.0 4.8 0.00 0.00 0.00 78 1013.3
20220811004800 27 184 0.0 0.0 0.00 0.00 0.00 78 1013.2